Regional Weather Roundup
Issued by NWS

Home | Current Version | Previous Version | Graphics & Text | Print | Product List | Glossary On
Versions: 1 2 3 4 5 6 7 8 9 10 11 12 13 14 15 16 17 18 19 20 21 22 23 24 25 26 27 28 29 30 31 32 33 34 35 36 37 38 39 40 41 42 43 44 45 46 47 48 49 50
000
ASUS43 KBIS 310410
RWRND

NORTH DAKOTA REGIONAL WEATHER ROUNDUP
NATIONAL WEATHER SERVICE BISMARCK ND
1000 PM CST FRI JAN 30 2015

NOTE: "FAIR" INDICATES FEW OR NO CLOUDS BELOW 12,000 FEET WITH NO
SIGNIFICANT WEATHER AND/OR OBSTRUCTIONS TO VISIBILITY.


NDZ001>003-009>011-017-310500-
NORTHWEST NORTH DAKOTA

CITY           SKY/WX    TMP DP  RH WIND       PRES   REMARKS
WILLISTON      CLOUDY    26  22  84 NE13      30.20S WCI  15
MINOT          CLOUDY    24  20  84 N10       30.21R WCI  14
MINOT AFB      CLOUDY    24  24  99 N12       30.22R WCI  13
$$

NDZ018>021-031>035-040>046-310500-
SOUTHWEST NORTH DAKOTA

CITY           SKY/WX    TMP DP  RH WIND       PRES   REMARKS
BISMARCK       CLEAR     25  24  96 CALM      30.19F
DICKINSON      CLEAR     25  21  85 NW3       30.12F
GARRISON         N/A     24  22  91 NE12      30.19S WCI  13
HETTINGER ARPT PTCLDY    25  21  85 CALM      30.14F
$$

NDZ004>008-012>016-024-026-027-054-310500-
NORTHEAST NORTH DAKOTA

CITY           SKY/WX    TMP DP  RH WIND       PRES   REMARKS
GRAND FORKS    CLOUDY    24  17  74 N18       30.19R WCI  10
GRND FRKS AFB  CLOUDY    23  17  77 N16       30.20R WCI  10
DEVILS LAKE    CLOUDY    21  16  79 N15       30.20R WCI   8
$$

NDZ022-023-025-028>030-036>039-047>053-310500-
SOUTHEAST NORTH DAKOTA

CITY           SKY/WX    TMP DP  RH WIND       PRES   REMARKS
FARGO          MOCLDY    27  22  81 NW10      30.16R WCI  17
JAMESTOWN      CLOUDY    26  23  88 N15       30.17S WCI  14
$$




USA.gov is the U.S. government's official web portal to all federal, state and local government web resources and services.